Location: Mercogliano
(40.9167°N, 14.7333°E)
Time: 21:40:17
(UTC+00:00)

CZ-2C R/B - Pass Details

Date: 17 January 2021
Orbit: 785 x 870 km, 98.2° (Epoch: 06 March)

Event Time Altitude Azimuth Distance (km) Brightness Sun altitude
Exits shadow 17:01:39 15° 75° (ENE) 2,145 4.1 -11.6°
Maximum altitude 17:02:50 16° 90° (E) 2,091 4.2 -11.8°
Drops below altitude 10° 17:06:10 10° 128° (SE) 2,501 4.8 -12.4°
Sets 17:09:32 0° 149° (SSE) 3,439 5.7 -13.0°
